• In Portugal
  • List of Countries
  • For 7 days
  • Water Temperature
  • Satellite Maps
  • Weather Map
  • Weather Widgets
  • user-avatar
    Login

    Hourly Weather Djelfa

    Today, 23 September, Sunday

    Time Temperature Precipitation Wind Pressure Humidity
    00:00 +22°C° 0 mm 1 mps 671 mmHg 37%
    01:00 +22°C° 0 mm 1 mps 670 mmHg 38%
    02:00 +21°C° 0 mm 1 mps 670 mmHg 39%
    03:00 +21°C° 0 mm 1 mps 670 mmHg 40%
    04:00 +21°C° 0 mm 1 mps 670 mmHg 41%
    05:00 +20°C° 0 mm 1 mps 670 mmHg 42%
    06:00 +21°C° 0 mm 1 mps 670 mmHg 43%
    07:00 +22°C° 0 mm 1 mps 670 mmHg 39%
    08:00 +23°C° 0 mm 1 mps 671 mmHg 36%
    09:00 +25°C° 0 mm 1 mps 671 mmHg 32%
    10:00 +26°C° 0 mm 1 mps 671 mmHg 30%
    11:00 +26°C° 0 mm 1 mps 671 mmHg 27%
    12:00 +27°C° 0 mm 1 mps 671 mmHg 25%
    13:00 +28°C° 0 mm 1 mps 671 mmHg 24%
    14:00 +28°C° 0 mm 1 mps 671 mmHg 24%
    15:00 +28°C° 0 mm 2 mps 670 mmHg 23%
    16:00 +28°C° 0 mm 2 mps 670 mmHg 24%
    17:00 +28°C° 0 mm 2 mps 670 mmHg 26%
    18:00 +27°C° 0 mm 2 mps 670 mmHg 27%
    19:00 +27°C° 0 mm 2 mps 670 mmHg 29%
    20:00 +26°C° 0 mm 1 mps 670 mmHg 32%
    21:00 +25°C° 0 mm 1 mps 670 mmHg 34%
    22:00 +25°C° 0 mm 1 mps 670 mmHg 36%
    23:00 +24°C° 0 mm 1 mps 670 mmHg 38%

    Tomorrow, 24 September, Monday

    Time Temperature Precipitation Wind Pressure Humidity
    00:00 +23°C° 0 mm 1 mps 670 mmHg 39%
    01:00 +23°C° 0 mm 1 mps 669 mmHg 41%
    02:00 +20°C° 0 mm 0 mps 669 mmHg 43%
    03:00 +20°C° 0 mm 0 mps 669 mmHg 45%
    04:00 +20°C° 0 mm 0 mps 669 mmHg 46%
    05:00 +19°C° 0 mm 0 mps 669 mmHg 47%
    06:00 +19°C° 0 mm 0 mps 669 mmHg 48%
    07:00 +21°C° 0 mm 0 mps 669 mmHg 43%
    08:00 +24°C° 0 mm 1 mps 670 mmHg 38%
    09:00 +26°C° 0 mm 1 mps 671 mmHg 33%
    10:00 +27°C° 0 mm 1 mps 671 mmHg 31%
    11:00 +27°C° 0 mm 1 mps 670 mmHg 29%
    12:00 +28°C° 0 mm 1 mps 670 mmHg 26%
    13:00 +29°C° 0 mm 1 mps 670 mmHg 26%
    14:00 +29°C° 0 mm 2 mps 670 mmHg 25%
    15:00 +29°C° 0 mm 2 mps 669 mmHg 24%
    16:00 +29°C° 0 mm 2 mps 669 mmHg 25%
    17:00 +28°C° 0 mm 3 mps 669 mmHg 27%
    18:00 +28°C° 0 mm 3 mps 669 mmHg 28%
    19:00 +27°C° 0 mm 3 mps 670 mmHg 30%
    20:00 +27°C° 0 mm 2 mps 670 mmHg 33%
    21:00 +26°C° 0 mm 2 mps 670 mmHg 35%
    22:00 +25°C° 0 mm 2 mps 670 mmHg 36%
    23:00 +25°C° 0 mm 2 mps 670 mmHg 37%

    Day after tomorrow, 25 September, Tuesday

    Time Temperature Precipitation Wind Pressure Humidity
    00:00 +24°C° 0 mm 2 mps 669 mmHg 39%
    01:00 +24°C° 0 mm 2 mps 669 mmHg 40%
    02:00 +23°C° 0 mm 1 mps 669 mmHg 42%
    03:00 +23°C° 0 mm 1 mps 669 mmHg 43%
    04:00 +22°C° 0 mm 1 mps 669 mmHg 45%
    05:00 +22°C° 0 mm 1 mps 669 mmHg 46%
    06:00 +22°C° 0 mm 1 mps 669 mmHg 47%
    07:00 +23°C° 0 mm 1 mps 669 mmHg 43%
    08:00 +25°C° 0 mm 1 mps 670 mmHg 38%
    09:00 +26°C° 0 mm 1 mps 671 mmHg 34%
    10:00 +27°C° 0 mm 2 mps 671 mmHg 32%
    11:00 +28°C° 0 mm 2 mps 670 mmHg 29%
    12:00 +29°C° 0 mm 2 mps 670 mmHg 27%
    13:00 +29°C° 0 mm 2 mps 670 mmHg 27%
    14:00 +29°C° 0 mm 2 mps 670 mmHg 26%
    15:00 +29°C° 0 mm 3 mps 669 mmHg 26%
    16:00 +29°C° 0 mm 3 mps 669 mmHg 27%
    17:00 +28°C° 0 mm 3 mps 670 mmHg 29%
    18:00 +28°C° 0 mm 4 mps 670 mmHg 30%
    19:00 +27°C° 0.1 mm 4 mps 670 mmHg 33%
    20:00 +27°C° 0.1 mm 4 mps 670 mmHg 36%
    21:00 +26°C° 0.1 mm 4 mps 671 mmHg 39%
    22:00 +25°C° 0 mm 4 mps 670 mmHg 43%
    23:00 +24°C° 0 mm 3 mps 670 mmHg 46%

    26 September, Wednesday

    Time Temperature Precipitation Wind Pressure Humidity
    00:00 +24°C° 0 mm 3 mps 670 mmHg 49%
    01:00 +23°C° 0 mm 2 mps 670 mmHg 52%
    02:00 +23°C° 0 mm 2 mps 669 mmHg 54%
    03:00 +21°C° 0 mm 2 mps 669 mmHg 57%
    04:00 +21°C° 0.1 mm 2 mps 669 mmHg 58%
    05:00 +20°C° 0.1 mm 2 mps 669 mmHg 59%
    06:00 +20°C° 0.1 mm 2 mps 669 mmHg 61%
    07:00 +21°C° 0.1 mm 2 mps 670 mmHg 56%
    08:00 +23°C° 0.1 mm 2 mps 670 mmHg 52%
    09:00 +24°C° 0.1 mm 3 mps 671 mmHg 48%
    10:00 +25°C° 0 mm 3 mps 671 mmHg 44%
    11:00 +26°C° 0 mm 2 mps 671 mmHg 41%
    12:00 +27°C° 0 mm 2 mps 671 mmHg 37%
    13:00 +27°C° 0.1 mm 2 mps 671 mmHg 36%
    14:00 +27°C° 0.1 mm 2 mps 670 mmHg 36%
    15:00 +27°C° 0.1 mm 2 mps 670 mmHg 35%
    16:00 +27°C° 0.3 mm 2 mps 670 mmHg 37%
    17:00 +26°C° 0.3 mm 2 mps 670 mmHg 38%
    18:00 +26°C° 0.3 mm 3 mps 670 mmHg 40%
    19:00 +25°C° 0.5 mm 3 mps 670 mmHg 44%
    20:00 +24°C° 0.5 mm 3 mps 671 mmHg 48%
    21:00 +24°C° 0.5 mm 3 mps 671 mmHg 52%
    22:00 +22°C° 0.9 mm 4 mps 671 mmHg 56%
    23:00 +21°C° 0.9 mm 4 mps 671 mmHg 60%

    27 September, Thursday

    Time Temperature Precipitation Wind Pressure Humidity
    00:00 +21°C° 0.9 mm 5 mps 670 mmHg 65%
    01:00 +20°C° 1 mm 5 mps 670 mmHg 66%
    02:00 +20°C° 1 mm 4 mps 670 mmHg 67%
    03:00 +20°C° 1 mm 4 mps 670 mmHg 69%
    04:00 +19°C° 0.6 mm 4 mps 670 mmHg 70%
    05:00 +19°C° 0.6 mm 4 mps 670 mmHg 72%
    06:00 +19°C° 0.6 mm 4 mps 670 mmHg 73%
    07:00 +19°C° 0.1 mm 4 mps 671 mmHg 70%
    08:00 +20°C° 0.1 mm 4 mps 671 mmHg 67%
    09:00 +21°C° 0.1 mm 4 mps 672 mmHg 64%
    10:00 +21°C° 0.2 mm 4 mps 672 mmHg 60%
    11:00 +22°C° 0.2 mm 4 mps 671 mmHg 56%
    12:00 +23°C° 0.2 mm 4 mps 671 mmHg 52%
    13:00 +23°C° 0.3 mm 4 mps 671 mmHg 51%
    14:00 +23°C° 0.3 mm 4 mps 671 mmHg 49%
    15:00 +23°C° 0.3 mm 4 mps 670 mmHg 48%
    16:00 +23°C° 0.3 mm 4 mps 670 mmHg 50%
    17:00 +23°C° 0.3 mm 4 mps 670 mmHg 51%
    18:00 +22°C° 0.3 mm 4 mps 670 mmHg 52%
    19:00 +22°C° 0.1 mm 4 mps 670 mmHg 53%
    20:00 +21°C° 0.1 mm 4 mps 670 mmHg 55%
    21:00 +21°C° 0.1 mm 4 mps 671 mmHg 56%
    22:00 +20°C° 0 mm 3 mps 670 mmHg 57%
    23:00 +20°C° 0 mm 3 mps 670 mmHg 57%

    28 September, Friday

    Time Temperature Precipitation Wind Pressure Humidity
    00:00 +20°C° 0 mm 2 mps 670 mmHg 58%
    01:00 +19°C° 0 mm 2 mps 669 mmHg 59%
    02:00 +19°C° 0 mm 2 mps 669 mmHg 60%
    03:00 +19°C° 0 mm 2 mps 669 mmHg 61%
    04:00 +18°C° 0 mm 2 mps 669 mmHg 66%
    05:00 +18°C° 0 mm 3 mps 669 mmHg 70%
    06:00 +18°C° 0 mm 3 mps 669 mmHg 74%
    07:00 +18°C° 0 mm 3 mps 669 mmHg 71%
    08:00 +19°C° 0 mm 3 mps 669 mmHg 67%
    09:00 +20°C° 0 mm 3 mps 670 mmHg 63%
    10:00 +21°C° 0 mm 2 mps 670 mmHg 58%
    11:00 +23°C° 0 mm 2 mps 669 mmHg 52%
    12:00 +24°C° 0 mm 2 mps 669 mmHg 47%
    13:00 +24°C° 0 mm 2 mps 669 mmHg 45%
    14:00 +25°C° 0 mm 2 mps 668 mmHg 44%
    15:00 +25°C° 0 mm 2 mps 668 mmHg 43%
    16:00 +24°C° 0.2 mm 2 mps 668 mmHg 44%
    17:00 +24°C° 0.2 mm 2 mps 668 mmHg 45%
    18:00 +24°C° 0.2 mm 2 mps 668 mmHg 46%
    19:00 +23°C° 0.4 mm 2 mps 668 mmHg 49%
    20:00 +23°C° 0.4 mm 2 mps 668 mmHg 52%
    21:00 +21°C° 0.4 mm 3 mps 668 mmHg 55%
    22:00 +21°C° 0 mm 2 mps 668 mmHg 56%
    23:00 +21°C° 0 mm 2 mps 667 mmHg 58%
    Show more